SCP
0 0 0 0 0 0 0 0 0 0 0 0 0 0 0 0 0 0 0 0 0 0 0 0 0 0 0 0 0 0 0 0 0 0 0 0 0 0 0 0 0 0 0 0 0 0 0 0 0
0 0 0 0 0 0 0 0 0 0 0 0 0 0 0 0 0 0 0 0 0 0 0 0 0 0 0 0 0 0 0 0 0 0 0 0 0 0 0 0 0 0 0 0 0 0 0 0 0
0 0 0 0 0 0 0 0 0 0 0 0 0 0 0 0 0 0 0 0 0 0 0 0 0 0 0 0 0 0 0 0 0 0 0 0 0 0 0 0 0 0 0 0 0 0 0 0 0
0 0 0 0 0 0 0 0 0 0 0 0 0 0 0 0 0 0 0 0 0 0 0 0 0 0 0 0 0 0 0 0 0 0 0 0 0 0 0 0 0 0 0 0 0 0 0 0 0
0 0 0 -0 -0 0 0 0 0 0 0 0 0 0 0 0 0 0 0 0 0 0 0 0 0 0 0 0 0 0 0 0 0 0 0 0 0 0 0 0 0 0 0 0 0 0 0 0 0
0 0 -0 -0 -0 -0 0 0 0 0 0 0 0 0 0 0 0 0 0 0 0 0 0 0 0 0 0 0 0 0 0 0 0 0 0 0 0 0 0 0 0 0 0 0 0 0 0 0 0
0 0 -0 -0 0 -0 0 -0 -0 0 0 0 0 0 0 0 0 0 0 0 0 0 0 0 0 0 0 0 0 0 0 0 0 0 0 0 0 0 0 0 0 0 0 0 0 0 0 0 0
0 0 0 0 0 0 -0 0 0 -0 0 0 0 -0 0 0 0 0 0 0 0 0 0 0 0 0 0 0 0 0 0 0 0 0 0 0 0 0 0 0 0 0 0 0 0 0 0 0 0
0 0 0 -0 0 0 0 0 0 0 0 0 0 0 0 0 0 0 0 0 0 0 0 0 0 0 0 0 0 0 0 0 0 0 0 0 0 0 0 0 0 0 0 0 0 0 0 0 0
0 0 0 0 0 0 0 0 0 0 0 0 0 0 0 0 0 0 0 0 0 0 0 0 0 0 0 0 0 0 0 0 0 0 0 0 0 0 0 0 0 0 0 0 0 0 0 0 0
0 0 0 0 0 0 0 0 0 0 0 0 0 0 0 0 0 0 0 0 0 0 0 0 0 0 0 0 0 0 0 0 0 0 0 0 0 0 0 0 0 0 0 0 0 0 0 0 0
0 0 0 0 0 0 0 0 0 0 0 0 0 0 0 0 0 0 0 0 0 0 0 0 0 0 0 0 0 0 0 0 0 0 0 0 0 0 0 0 0 0 0 0 0 1 0 0 0
0 0 0 0 0 0 0 0 0 0 0 0 0 0 0 0 0 0 0 0 0 0 0 0 0 0 0 0 0 0 0 0 0 0 0 0 0 0 0 0 0 0 0 0 0 0 0 0 0
0 0 0 0 0 0 0 0 0 0 0 0 0 0 0 0 0 0 0 0 0 0 0 0 0 0 0 0 0 0 0 0 0 0 0 0 0 0 0 0 0 0 0 0 0 0 0 0 0
0 0 0 0 0 0 0 0 0 0 0 0 0 0 0 0 0 0 0 0 0 0 0 0 0 0 0 0 0 0 0 0 0 0 0 0 0 0 0 0 0 0 0 0 0 0 0 0 0
0 0 0 0 0 0 0 0 0 0 0 0 0 0 0 0 0 0 0 0 0 0 0 0 0 0 0 0 0 0 0 0 0 0 0 0 0 0 0 0 0 0 0 0 0 0 0 0 0
0 0 0 0 0 0 0 0 0 0 0 0 0 0 0 0 0 0 0 0 0 0 0 0 0 0 0 0 0 0 0 0 0 0 0 0 0 0 0 0 0 0 0 0 0 0 0 0 0
0 0 0 0 0 0 0 0 0 0 0 0 0 0 0 0 0 0 0 0 0 0 0 0 0 0 0 0 0 0 0 0 0 0 0 0 0 0 0 0 0 0 0 0 0 0 0 0 0
0 0 0 0 0 0 0 0 0 0 0 0 0 0 0 0 0 0 0 0 0 0 0 0 0 0 0 0 0 0 0 0 0 0 0 0 0 0 0 0 0 0 0 0 0 0 0 0 0
0 0 0 0 0 0 0 0 0 0 0 0 0 0 0 0 0 0 0 0 0 0 0 0 0 0 0 0 0 0 0 0 0 0 0 0 0 0 0 0 0 0 0 0 0 0 0 0 0
0 0 0 0 0 0 0 0 0 0 0 0 0 0 0 0 0 0 0 0 0 0 0 0 0 0 0 0 0 0 0 0 0 0 0 0 0 0 0 0 0 0 0 0 0 0 0 0 0
0 0 0 0 0 0 0 0 0 0 0 0 0 0 0 0 0 0 0 0 0 0 0 0 0 0 0 0 0 0 0 0 0 0 0 0 0 0 0 0 0 0 0 0 0 0 0 0 0
0 0 0 0 0 0 0 0 0 0 0 0 0 0 0 0 0 0 0 0 0 0 0 0 0 0 0 0 0 0 0 0 0 0 0 0 0 0 0 0 0 0 0 0 0 0 0 0 0
0 0 0 0 0 0 0 0 0 0 0 0 0 0 0 0 0 0 0 0 0 0 0 0 0 0 0 0 0 0 0 0 0 0 0 0 0 0 0 0 0 0 0 0 0 0 0 0 0
0 0 0 0 0 0 0 0 0 0 0 0 0 0 0 0 0 0 0 0 0 0 0 0 0 0 0 0 0 0 0 0 0 0 0 0 0 0 0 0 0 0 0 0 0 0 0 0 0
0 0 0 0 0 0 0 0 0 0 0 0 0 0 0 0 0 0 0 0 0 0 0 0 0 0 0 0 0 0 0 0 0 0 0 0 0 0 0 0 0 0 0 0 0 0 0 0 0
0 0 0 0 0 0 0 0 0 0 -0 -0 0 0 0 0 0 0 0 0 0 0 0 0 0 0 0 0 0 0 0 0 0 0 0 0 0 0 0 0 0 0 0 0 0 0 0 0 0
0 0 0 0 0 0 0 0 0 0 0 0 -0 -0 0 0 0 0 0 0 0 0 0 0 0 0 0 0 0 0 0 0 0 0 0 0 0 0 0 0 0 0 0 0 0 0 0 0 0
0 0 0 0 0 0 0 0 0 0 0 0 -0 0 0 0 0 0 0 0 0 0 0 0 0 0 0 0 0 0 0 0 0 0 0 0 0 0 0 0 0 0 0 0 0 0 0 0 0
0 0 0 0 0 0 0 0 0 0 0 0 0 0 0 0 0 0 0 0 0 0 0 0 0 0 0 0 0 0 0 0 0 0 0 0 0 0 0 0 0 0 0 0 0 0 0 0 0
Wind_Speed_500mb
10 7 9 6 11 10 22 15 3 9 8 1 1 7 5 12 9 5 2 13 12 6 3 12 16 19 20 20 22 24 28 29 30 30 29 29 31 29 27 27 28 32 35 31 32 33 33 32 31
11 10 10 4 12 17 17 15 18 8 4 6 1 3 1 10 9 6 6 11 8 8 8 9 17 19 22 24 20 22 26 29 32 34 35 36 36 34 33 34 35 37 39 41 41 37 37 36 35
14 18 10 6 14 20 11 18 12 11 4 8 7 6 5 6 7 5 10 13 11 9 13 12 11 12 16 22 25 25 26 30 33 36 38 39 40 40 40 41 41 42 43 43 45 46 43 41 40
14 9 3 12 19 18 12 8 8 8 6 5 6 11 9 6 3 6 9 10 7 8 9 7 11 10 16 19 22 26 28 30 30 33 34 37 40 41 42 43 45 44 43 43 41 40 45 41 36
20 8 11 17 23 11 13 4 3 8 5 5 2 9 10 5 8 8 10 9 4 4 11 9 6 8 12 19 22 25 26 30 34 37 36 36 37 39 40 40 41 43 44 45 40 40 44 42 39
13 6 12 21 20 14 8 6 8 10 6 5 6 11 9 9 6 4 8 8 8 7 3 5 9 15 19 19 23 28 29 31 32 37 40 41 39 39 40 40 41 44 46 47 44 44 46 47 44
16 12 17 16 9 16 10 4 11 9 9 7 2 6 10 12 9 4 3 6 6 6 7 8 7 13 22 24 28 29 34 38 39 39 42 45 46 41 41 41 48 49 48 51 50 46 47 49 42
14 8 9 11 13 9 7 7 6 9 8 6 7 7 8 15 12 5 4 7 10 11 11 12 13 13 14 16 17 19 22 32 40 44 49 49 47 46 45 47 49 56 55 55 58 53 50 44 36
15 13 15 11 12 3 6 11 7 6 7 6 8 6 9 16 13 9 9 11 15 16 16 18 19 21 21 19 22 23 24 25 24 32 35 48 48 50 51 51 53 56 59 58 62 60 56 47 39
17 17 17 3 4 3 4 6 5 8 11 12 11 13 16 14 14 16 15 9 11 10 12 13 14 14 15 16 17 17 21 24 27 29 34 31 33 39 52 52 56 59 59 61 64 64 59 52 45
9 14 10 9 6 4 6 9 5 8 16 17 14 12 12 16 18 13 10 7 4 6 8 11 8 7 8 11 14 17 19 21 24 27 28 28 27 32 43 40 48 66 65 61 64 66 65 61 50
10 11 7 5 7 4 7 5 9 15 11 6 11 10 14 13 10 10 9 10 12 9 11 9 9 7 9 14 18 23 27 30 32 34 35 35 34 30 31 33 35 63 73 62 69 76 74 69 59
18 8 9 6 7 8 9 19 16 26 22 23 25 17 13 17 15 17 21 20 18 19 17 15 15 14 16 20 24 30 36 40 43 45 44 44 44 43 39 38 38 40 66 67 77 79 83 80 67
11 12 6 6 6 4 9 10 3 5 8 17 27 18 17 23 28 33 31 31 24 24 23 20 22 23 26 29 36 42 47 52 57 61 63 62 60 57 57 52 48 43 46 53 81 84 92 86 80
10 11 7 7 5 4 5 17 20 20 11 15 17 11 22 32 36 31 26 32 27 28 27 25 27 32 36 42 48 53 59 67 74 78 81 80 76 74 71 71 67 60 54 57 57 82 75 96 89
8 5 10 8 3 4 6 11 6 12 23 24 19 8 15 20 19 16 17 24 25 25 24 26 31 36 43 51 59 67 74 79 84 89 91 90 89 85 82 83 82 77 75 67 64 68 53 71 106
10 7 13 8 2 2 12 12 4 18 20 26 32 22 12 12 16 19 20 21 20 19 22 28 34 42 51 60 71 79 84 86 83 83 86 86 84 83 82 83 86 86 85 86 79 74 67 66 65
12 11 7 7 7 7 17 38 26 25 29 35 35 24 18 22 22 24 20 18 16 18 25 33 43 53 63 73 80 86 87 85 82 75 67 65 67 70 73 77 80 81 84 89 90 84 81 77 72
3 4 5 4 5 8 16 31 32 32 39 43 46 30 30 32 28 25 19 15 16 22 30 40 50 60 72 79 83 85 84 80 73 62 59 57 59 59 60 62 63 66 75 77 71 75 85 89 90
6 4 5 3 4 7 15 41 29 10 15 27 38 36 37 37 32 27 20 16 20 28 38 49 58 66 72 76 79 75 74 71 69 66 62 58 54 54 58 58 58 59 60 62 60 61 64 91 91
4 6 4 3 9 2 18 17 8 5 7 11 21 30 35 38 32 24 21 19 25 36 47 55 62 65 70 74 75 70 67 63 57 55 56 57 56 51 52 57 58 58 60 61 61 62 67 77 82
7 5 9 4 7 5 9 11 9 6 10 14 23 30 36 33 28 23 18 22 31 42 51 57 61 65 69 70 68 65 63 61 58 63 60 62 60 54 49 49 54 61 65 70 70 60 68 68 79
4 6 8 4 3 7 7 6 7 4 15 23 25 32 35 31 24 19 20 27 38 47 54 56 60 64 67 66 63 62 61 58 58 57 57 54 55 55 54 54 54 58 65 68 63 67 63 73 77
24 9 6 5 1 6 7 5 10 9 5 8 17 34 36 32 27 23 25 33 42 47 49 55 61 63 66 65 60 56 58 57 55 55 58 61 59 60 60 60 58 57 57 63 68 68 68 76 80
5 6 3 4 4 6 6 6 19 7 6 4 8 19 35 33 28 25 26 33 39 42 47 53 58 62 63 61 58 57 57 55 57 59 63 65 68 68 70 67 67 64 61 58 58 68 71 81 73
14 5 6 9 6 2 3 12 6 2 1 10 14 9 24 33 32 24 26 32 35 40 46 52 56 59 58 57 56 56 55 55 60 63 62 67 70 73 73 72 71 69 69 66 60 64 74 73 93
10 11 4 13 3 3 5 11 23 15 25 25 22 17 27 33 30 25 28 33 34 40 46 50 53 56 55 57 58 58 56 56 60 60 61 63 66 68 69 68 72 73 74 74 69 68 73 75 79
4 9 6 2 9 10 7 10 9 12 18 17 18 32 31 34 40 32 31 33 35 39 44 46 50 54 57 59 60 60 60 57 56 58 60 60 63 64 68 70 70 72 75 75 72 68 71 75 63
9 7 1 1 3 6 4 9 11 14 15 14 14 20 24 32 42 40 36 36 34 36 39 43 48 52 55 58 60 62 61 57 56 55 55 56 59 61 64 69 70 70 65 75 72 68 70 71 88
3 8 13 7 11 1 3 13 6 12 10 10 15 19 20 23 34 39 42 33 31 31 33 38 44 49 52 54 58 60 60 58 57 55 53 53 58 62 62 65 69 65 60 73 66 64 63 62 73
Wind_Direction_500mb
214 197 178 180 230 243 232 213 249 199 199 27 241 248 352 33 355 32 355 353 344 358 199 189 190 208 226 225 217 218 219 222 225 227 235 236 239 240 240 241 235 227 227 223 222 217 219 222 214
192 170 167 198 247 228 219 212 199 174 111 198 124 247 227 80 51 58 84 358 31 84 109 158 191 209 223 232 233 232 234 235 236 237 238 241 245 247 247 246 245 239 231 231 233 229 233 230 226
181 173 204 240 236 238 245 201 179 135 113 170 155 59 40 62 46 47 13 31 49 95 104 106 164 209 241 239 242 244 244 244 245 246 248 249 250 251 251 252 247 244 241 234 232 236 235 240 232
162 172 165 243 232 237 243 165 168 180 159 95 135 111 91 88 65 58 45 52 65 107 121 106 117 181 217 244 258 259 257 255 251 252 252 254 258 258 256 252 250 245 241 240 237 233 226 220 220
174 187 223 243 241 239 226 218 238 211 145 122 165 125 113 86 105 63 48 47 101 153 158 191 195 234 236 240 242 248 259 261 260 260 259 259 261 261 261 257 250 241 238 235 231 218 218 214 221
175 214 228 237 227 221 221 207 230 228 194 147 169 149 135 156 133 99 68 56 37 16 346 277 256 257 269 267 266 266 265 265 263 258 259 259 261 264 259 251 248 239 235 228 219 218 221 221 217
215 213 247 256 260 237 210 194 216 206 196 161 141 183 145 155 175 155 24 12 12 353 343 327 296 278 280 285 274 274 265 266 268 268 264 254 253 260 259 256 243 243 236 229 220 224 220 219 229
197 231 233 231 234 236 149 177 170 218 180 164 168 205 166 182 195 208 277 299 302 301 300 295 297 296 290 292 295 292 290 274 268 266 265 270 265 251 252 255 252 245 241 234 228 226 219 213 222
154 222 233 237 206 177 151 206 182 213 202 191 196 187 188 198 213 230 263 289 288 286 288 290 291 293 293 288 284 286 289 288 293 280 282 262 267 263 251 245 252 250 243 241 233 231 223 223 226
209 226 222 229 213 230 185 241 201 226 197 213 203 218 218 229 256 270 274 265 269 280 288 304 309 307 307 311 313 307 299 296 294 296 296 298 288 272 266 259 246 247 248 245 238 234 225 228 225
198 231 207 205 212 215 247 253 242 253 243 237 211 176 223 252 275 257 238 245 255 276 295 311 306 314 327 330 328 326 324 320 315 312 311 312 303 283 268 278 266 251 246 242 240 233 233 232 221
207 220 191 174 192 207 238 275 257 235 256 192 193 252 274 230 205 217 244 256 253 253 250 268 247 262 302 316 319 321 321 319 317 314 312 310 308 305 292 277 261 245 242 246 239 238 239 236 226
216 183 204 192 208 249 269 257 265 260 249 250 252 260 239 212 227 245 246 247 247 243 237 249 251 268 284 296 304 309 310 310 309 307 305 305 304 301 296 288 271 262 246 244 245 244 242 243 233
186 169 193 227 213 234 264 251 263 229 208 247 226 227 229 247 263 266 263 244 248 235 233 248 261 276 285 289 296 299 300 300 299 298 296 295 293 292 291 287 281 275 256 245 241 243 248 248 243
136 176 204 199 210 221 291 245 232 244 233 167 172 220 265 266 270 267 254 228 236 227 230 248 263 275 282 287 291 294 295 295 295 293 291 289 286 284 282 281 278 274 269 268 249 243 247 241 244
189 216 212 139 210 176 238 267 178 183 185 191 191 311 288 266 250 241 214 209 211 215 234 258 274 283 289 294 297 296 294 292 290 287 285 282 280 277 274 273 273 272 270 265 267 257 244 242 235
202 228 214 176 122 278 224 272 161 188 205 220 232 281 271 217 189 179 174 183 202 229 254 270 281 289 293 295 299 302 302 299 295 289 283 279 275 271 268 266 266 267 265 266 262 262 256 244 241
192 211 207 224 157 234 237 258 253 225 220 241 255 260 222 190 179 176 180 200 227 258 277 287 295 301 306 307 307 306 303 301 298 292 286 283 280 274 267 264 262 262 263 261 262 257 255 252 241
144 192 224 142 113 282 254 274 271 255 241 239 248 226 199 188 184 186 199 226 257 278 291 303 309 310 310 312 311 306 304 303 301 295 289 285 283 280 275 269 265 261 258 257 258 258 254 251 246
170 193 223 161 136 303 311 293 289 257 241 234 221 200 187 181 189 199 217 250 279 296 305 306 309 313 315 313 310 307 305 303 298 296 295 291 283 280 278 273 267 262 259 255 250 246 249 248 246
193 230 192 290 304 154 313 270 214 178 204 183 174 178 182 187 191 203 226 262 291 302 307 313 313 315 314 312 311 310 307 304 300 297 293 292 291 287 277 272 269 264 258 258 254 247 245 249 247
226 117 109 39 317 286 11 293 247 192 220 204 172 179 184 188 197 212 243 280 299 308 312 311 314 317 317 317 316 312 308 303 300 298 296 298 298 296 288 277 271 268 264 260 257 255 247 243 245
107 105 93 95 70 306 133 233 257 203 219 205 193 193 194 196 204 230 267 291 303 307 309 314 316 320 322 321 317 312 307 303 301 298 296 295 295 295 293 287 280 271 266 263 259 252 248 245 241
137 107 77 81 175 240 117 211 268 205 182 137 199 206 204 205 219 245 275 294 303 307 313 318 322 326 326 322 319 316 311 306 301 299 296 297 293 292 290 288 284 276 268 263 259 252 249 248 243
192 155 237 238 200 244 127 210 263 249 203 171 155 201 208 208 224 251 280 297 306 312 315 321 326 329 327 325 323 320 316 309 303 302 301 299 297 295 295 292 288 280 275 268 263 253 249 241 242
184 230 218 235 218 9 138 233 240 288 327 239 252 235 206 209 225 257 286 303 310 314 319 323 328 330 331 330 327 322 317 311 308 306 302 299 297 297 295 290 287 282 278 272 260 261 250 248 238
162 213 83 104 69 265 236 268 266 249 249 235 241 217 213 213 225 260 299 312 314 315 319 326 330 331 334 334 331 328 323 317 311 308 304 302 300 295 294 289 288 283 278 274 262 257 260 248 246
201 143 130 258 198 232 234 272 243 206 196 197 204 219 227 224 232 254 301 310 307 313 320 328 331 334 336 337 335 331 329 323 316 312 308 305 303 300 297 294 289 278 270 267 265 260 260 240 237
145 204 135 46 270 225 270 245 203 205 182 195 212 218 231 239 238 251 292 302 301 309 319 330 334 337 340 339 338 336 333 327 320 317 315 312 309 306 302 301 297 286 271 261 262 256 256 250 243
235 220 190 211 190 224 318 268 175 227 206 213 229 233 242 268 249 257 282 284 292 306 322 332 337 341 343 342 342 342 340 334 328 323 322 319 317 313 313 308 300 289 273 256 255 254 250 245 241
Wind_Speed_850mb
10 7 9 6 11 10 22 15 3 9 8 1 1 7 5 12 9 5 2 13 12 6 3 12 16 19 20 20 22 24 28 29 30 30 29 29 31 29 27 27 28 32 35 31 32 33 33 32 31
11 10 10 4 12 17 17 15 18 8 4 6 1 3 1 10 9 6 6 11 8 8 8 9 17 19 22 24 20 22 26 29 32 34 35 36 36 34 33 34 35 37 39 41 41 37 37 36 35
14 18 10 6 14 20 11 18 12 11 4 8 7 6 5 6 7 5 10 13 11 9 13 12 11 12 16 22 25 25 26 30 33 36 38 39 40 40 40 41 41 42 43 43 45 46 43 41 40
14 9 3 12 19 18 12 8 8 8 6 5 6 11 9 6 3 6 9 10 7 8 9 7 11 10 16 19 22 26 28 30 30 33 34 37 40 41 42 43 45 44 43 43 41 40 45 41 36
20 8 11 17 23 11 13 4 3 8 5 5 2 9 10 5 8 8 10 9 4 4 11 9 6 8 12 19 22 25 26 30 34 37 36 36 37 39 40 40 41 43 44 45 40 40 44 42 39
13 6 12 21 20 14 8 6 8 10 6 5 6 11 9 9 6 4 8 8 8 7 3 5 9 15 19 19 23 28 29 31 32 37 40 41 39 39 40 40 41 44 46 47 44 44 46 47 44
16 12 17 16 9 16 10 4 11 9 9 7 2 6 10 12 9 4 3 6 6 6 7 8 7 13 22 24 28 29 34 38 39 39 42 45 46 41 41 41 48 49 48 51 50 46 47 49 42
14 8 9 11 13 9 7 7 6 9 8 6 7 7 8 15 12 5 4 7 10 11 11 12 13 13 14 16 17 19 22 32 40 44 49 49 47 46 45 47 49 56 55 55 58 53 50 44 36
15 13 15 11 12 3 6 11 7 6 7 6 8 6 9 16 13 9 9 11 15 16 16 18 19 21 21 19 22 23 24 25 24 32 35 48 48 50 51 51 53 56 59 58 62 60 56 47 39
17 17 17 3 4 3 4 6 5 8 11 12 11 13 16 14 14 16 15 9 11 10 12 13 14 14 15 16 17 17 21 24 27 29 34 31 33 39 52 52 56 59 59 61 64 64 59 52 45
9 14 10 9 6 4 6 9 5 8 16 17 14 12 12 16 18 13 10 7 4 6 8 11 8 7 8 11 14 17 19 21 24 27 28 28 27 32 43 40 48 66 65 61 64 66 65 61 50
10 11 7 5 7 4 7 5 9 15 11 6 11 10 14 13 10 10 9 10 12 9 11 9 9 7 9 14 18 23 27 30 32 34 35 35 34 30 31 33 35 63 73 62 69 76 74 69 59
18 8 9 6 7 8 9 19 16 26 22 23 25 17 13 17 15 17 21 20 18 19 17 15 15 14 16 20 24 30 36 40 43 45 44 44 44 43 39 38 38 40 66 67 77 79 83 80 67
11 12 6 6 6 4 9 10 3 5 8 17 27 18 17 23 28 33 31 31 24 24 23 20 22 23 26 29 36 42 47 52 57 61 63 62 60 57 57 52 48 43 46 53 81 84 92 86 80
10 11 7 7 5 4 5 17 20 20 11 15 17 11 22 32 36 31 26 32 27 28 27 25 27 32 36 42 48 53 59 67 74 78 81 80 76 74 71 71 67 60 54 57 57 82 75 96 89
8 5 10 8 3 4 6 11 6 12 23 24 19 8 15 20 19 16 17 24 25 25 24 26 31 36 43 51 59 67 74 79 84 89 91 90 89 85 82 83 82 77 75 67 64 68 53 71 106
10 7 13 8 2 2 12 12 4 18 20 26 32 22 12 12 16 19 20 21 20 19 22 28 34 42 51 60 71 79 84 86 83 83 86 86 84 83 82 83 86 86 85 86 79 74 67 66 65
12 11 7 7 7 7 17 38 26 25 29 35 35 24 18 22 22 24 20 18 16 18 25 33 43 53 63 73 80 86 87 85 82 75 67 65 67 70 73 77 80 81 84 89 90 84 81 77 72
3 4 5 4 5 8 16 31 32 32 39 43 46 30 30 32 28 25 19 15 16 22 30 40 50 60 72 79 83 85 84 80 73 62 59 57 59 59 60 62 63 66 75 77 71 75 85 89 90
6 4 5 3 4 7 15 41 29 10 15 27 38 36 37 37 32 27 20 16 20 28 38 49 58 66 72 76 79 75 74 71 69 66 62 58 54 54 58 58 58 59 60 62 60 61 64 91 91
4 6 4 3 9 2 18 17 8 5 7 11 21 30 35 38 32 24 21 19 25 36 47 55 62 65 70 74 75 70 67 63 57 55 56 57 56 51 52 57 58 58 60 61 61 62 67 77 82
7 5 9 4 7 5 9 11 9 6 10 14 23 30 36 33 28 23 18 22 31 42 51 57 61 65 69 70 68 65 63 61 58 63 60 62 60 54 49 49 54 61 65 70 70 60 68 68 79
4 6 8 4 3 7 7 6 7 4 15 23 25 32 35 31 24 19 20 27 38 47 54 56 60 64 67 66 63 62 61 58 58 57 57 54 55 55 54 54 54 58 65 68 63 67 63 73 77
24 9 6 5 1 6 7 5 10 9 5 8 17 34 36 32 27 23 25 33 42 47 49 55 61 63 66 65 60 56 58 57 55 55 58 61 59 60 60 60 58 57 57 63 68 68 68 76 80
5 6 3 4 4 6 6 6 19 7 6 4 8 19 35 33 28 25 26 33 39 42 47 53 58 62 63 61 58 57 57 55 57 59 63 65 68 68 70 67 67 64 61 58 58 68 71 81 73
14 5 6 9 6 2 3 12 6 2 1 10 14 9 24 33 32 24 26 32 35 40 46 52 56 59 58 57 56 56 55 55 60 63 62 67 70 73 73 72 71 69 69 66 60 64 74 73 93
10 11 4 13 3 3 5 11 23 15 25 25 22 17 27 33 30 25 28 33 34 40 46 50 53 56 55 57 58 58 56 56 60 60 61 63 66 68 69 68 72 73 74 74 69 68 73 75 79
4 9 6 2 9 10 7 10 9 12 18 17 18 32 31 34 40 32 31 33 35 39 44 46 50 54 57 59 60 60 60 57 56 58 60 60 63 64 68 70 70 72 75 75 72 68 71 75 63
9 7 1 1 3 6 4 9 11 14 15 14 14 20 24 32 42 40 36 36 34 36 39 43 48 52 55 58 60 62 61 57 56 55 55 56 59 61 64 69 70 70 65 75 72 68 70 71 88
3 8 13 7 11 1 3 13 6 12 10 10 15 19 20 23 34 39 42 33 31 31 33 38 44 49 52 54 58 60 60 58 57 55 53 53 58 62 62 65 69 65 60 73 66 64 63 62 73
Wind_Direction_850mb
214 197 178 180 230 243 232 213 249 199 199 27 241 248 352 33 355 32 355 353 344 358 199 189 190 208 226 225 217 218 219 222 225 227 235 236 239 240 240 241 235 227 227 223 222 217 219 222 214
192 170 167 198 247 228 219 212 199 174 111 198 124 247 227 80 51 58 84 358 31 84 109 158 191 209 223 232 233 232 234 235 236 237 238 241 245 247 247 246 245 239 231 231 233 229 233 230 226
181 173 204 240 236 238 245 201 179 135 113 170 155 59 40 62 46 47 13 31 49 95 104 106 164 209 241 239 242 244 244 244 245 246 248 249 250 251 251 252 247 244 241 234 232 236 235 240 232
162 172 165 243 232 237 243 165 168 180 159 95 135 111 91 88 65 58 45 52 65 107 121 106 117 181 217 244 258 259 257 255 251 252 252 254 258 258 256 252 250 245 241 240 237 233 226 220 220
174 187 223 243 241 239 226 218 238 211 145 122 165 125 113 86 105 63 48 47 101 153 158 191 195 234 236 240 242 248 259 261 260 260 259 259 261 261 261 257 250 241 238 235 231 218 218 214 221
175 214 228 237 227 221 221 207 230 228 194 147 169 149 135 156 133 99 68 56 37 16 346 277 256 257 269 267 266 266 265 265 263 258 259 259 261 264 259 251 248 239 235 228 219 218 221 221 217
215 213 247 256 260 237 210 194 216 206 196 161 141 183 145 155 175 155 24 12 12 353 343 327 296 278 280 285 274 274 265 266 268 268 264 254 253 260 259 256 243 243 236 229 220 224 220 219 229
197 231 233 231 234 236 149 177 170 218 180 164 168 205 166 182 195 208 277 299 302 301 300 295 297 296 290 292 295 292 290 274 268 266 265 270 265 251 252 255 252 245 241 234 228 226 219 213 222
154 222 233 237 206 177 151 206 182 213 202 191 196 187 188 198 213 230 263 289 288 286 288 290 291 293 293 288 284 286 289 288 293 280 282 262 267 263 251 245 252 250 243 241 233 231 223 223 226
209 226 222 229 213 230 185 241 201 226 197 213 203 218 218 229 256 270 274 265 269 280 288 304 309 307 307 311 313 307 299 296 294 296 296 298 288 272 266 259 246 247 248 245 238 234 225 228 225
198 231 207 205 212 215 247 253 242 253 243 237 211 176 223 252 275 257 238 245 255 276 295 311 306 314 327 330 328 326 324 320 315 312 311 312 303 283 268 278 266 251 246 242 240 233 233 232 221
207 220 191 174 192 207 238 275 257 235 256 192 193 252 274 230 205 217 244 256 253 253 250 268 247 262 302 316 319 321 321 319 317 314 312 310 308 305 292 277 261 245 242 246 239 238 239 236 226
216 183 204 192 208 249 269 257 265 260 249 250 252 260 239 212 227 245 246 247 247 243 237 249 251 268 284 296 304 309 310 310 309 307 305 305 304 301 296 288 271 262 246 244 245 244 242 243 233
186 169 193 227 213 234 264 251 263 229 208 247 226 227 229 247 263 266 263 244 248 235 233 248 261 276 285 289 296 299 300 300 299 298 296 295 293 292 291 287 281 275 256 245 241 243 248 248 243
136 176 204 199 210 221 291 245 232 244 233 167 172 220 265 266 270 267 254 228 236 227 230 248 263 275 282 287 291 294 295 295 295 293 291 289 286 284 282 281 278 274 269 268 249 243 247 241 244
189 216 212 139 210 176 238 267 178 183 185 191 191 311 288 266 250 241 214 209 211 215 234 258 274 283 289 294 297 296 294 292 290 287 285 282 280 277 274 273 273 272 270 265 267 257 244 242 235
202 228 214 176 122 278 224 272 161 188 205 220 232 281 271 217 189 179 174 183 202 229 254 270 281 289 293 295 299 302 302 299 295 289 283 279 275 271 268 266 266 267 265 266 262 262 256 244 241
192 211 207 224 157 234 237 258 253 225 220 241 255 260 222 190 179 176 180 200 227 258 277 287 295 301 306 307 307 306 303 301 298 292 286 283 280 274 267 264 262 262 263 261 262 257 255 252 241
144 192 224 142 113 282 254 274 271 255 241 239 248 226 199 188 184 186 199 226 257 278 291 303 309 310 310 312 311 306 304 303 301 295 289 285 283 280 275 269 265 261 258 257 258 258 254 251 246
170 193 223 161 136 303 311 293 289 257 241 234 221 200 187 181 189 199 217 250 279 296 305 306 309 313 315 313 310 307 305 303 298 296 295 291 283 280 278 273 267 262 259 255 250 246 249 248 246
193 230 192 290 304 154 313 270 214 178 204 183 174 178 182 187 191 203 226 262 291 302 307 313 313 315 314 312 311 310 307 304 300 297 293 292 291 287 277 272 269 264 258 258 254 247 245 249 247
226 117 109 39 317 286 11 293 247 192 220 204 172 179 184 188 197 212 243 280 299 308 312 311 314 317 317 317 316 312 308 303 300 298 296 298 298 296 288 277 271 268 264 260 257 255 247 243 245
107 105 93 95 70 306 133 233 257 203 219 205 193 193 194 196 204 230 267 291 303 307 309 314 316 320 322 321 317 312 307 303 301 298 296 295 295 295 293 287 280 271 266 263 259 252 248 245 241
137 107 77 81 175 240 117 211 268 205 182 137 199 206 204 205 219 245 275 294 303 307 313 318 322 326 326 322 319 316 311 306 301 299 296 297 293 292 290 288 284 276 268 263 259 252 249 248 243
192 155 237 238 200 244 127 210 263 249 203 171 155 201 208 208 224 251 280 297 306 312 315 321 326 329 327 325 323 320 316 309 303 302 301 299 297 295 295 292 288 280 275 268 263 253 249 241 242
184 230 218 235 218 9 138 233 240 288 327 239 252 235 206 209 225 257 286 303 310 314 319 323 328 330 331 330 327 322 317 311 308 306 302 299 297 297 295 290 287 282 278 272 260 261 250 248 238
162 213 83 104 69 265 236 268 266 249 249 235 241 217 213 213 225 260 299 312 314 315 319 326 330 331 334 334 331 328 323 317 311 308 304 302 300 295 294 289 288 283 278 274 262 257 260 248 246
201 143 130 258 198 232 234 272 243 206 196 197 204 219 227 224 232 254 301 310 307 313 320 328 331 334 336 337 335 331 329 323 316 312 308 305 303 300 297 294 289 278 270 267 265 260 260 240 237
145 204 135 46 270 225 270 245 203 205 182 195 212 218 231 239 238 251 292 302 301 309 319 330 334 337 340 339 338 336 333 327 320 317 315 312 309 306 302 301 297 286 271 261 262 256 256 250 243
235 220 190 211 190 224 318 268 175 227 206 213 229 233 242 268 249 257 282 284 292 306 322 332 337 341 343 342 342 342 340 334 328 323 322 319 317 313 313 308 300 289 273 256 255 254 250 245 241